Weather History for Mobile Downtown, AL

Change the Weather History Date:

Sunday, January 5, 2014

  Actual Average Record
Temperature  
Mean Temperature 56 °F -  
Max Temperature 64 °F 57 °F 73 °F (2004)
Min Temperature 46 °F 39 °F 19 °F (1999)
Degree Days  
Heating Degree Days 9    
Growing Degree Days 6 (Base 50)    
Moisture  
Dew Point 48 °F    
Average Humidity 81    
Maximum Humidity 93    
Minimum Humidity 70    
Precipitation  
Precipitation 0.00 in - - ()
Sea Level Pressure  
Sea Level Pressure 29.99 in    
Wind  
Wind Speed 8 mph (NE)    
Max Wind Speed 28 mph    
Max Gust Speed 36 mph    
Visibility 10 miles    
Events      
Averages and records for this station are not official NWS values.
T = Trace of Precipitation, MM = Missing Value Source: NWS Daily Summary

Daily Weather History Graph

Daily Weather History Graph

Search for Another Location

Airport:

Trip Planner

Search our weather history database for the weather conditions in past years. The results will help you decide how hot, cold, wet, or windy it might be!

Date:

Astronomy

Jan. 05, 2014 Rise Set
Actual Time 6:50 AM CST 5:05 PM CST
Civil Twilight 6:24 AM CST 5:31 PM CST
Nautical Twilight 5:54 AM CST 6:01 PM CST
Astronomical Twilight 5:24 AM CST 6:30 PM CST
Moon 9:52 AM CST (1/5) 10:09 PM CST (1/5)
Length of Visible Light 11h 07m
Length of Day
10h 14m
Waxing Crescent, 25% of the Moon is Illuminated
Jan 5
Waxing Crescent
Jan 7
First Quarter
Jan 15
Full
Jan 23
Last Quarter
Jan 30
New

Hourly Weather History & Observations

Time (CST) Temp. Windchill Dew Point Humidity Pressure Visibility Wind Dir Wind Speed Gust Speed Precip Events Conditions
12:11 AM 48.9 °F - 43.0 °F 80% 30.08 in 10.0 mi ENE 8.1 mph - N/A   Overcast
12:37 AM 48.9 °F - 43.0 °F 80% 30.07 in 10.0 mi NE 5.8 mph - N/A   Overcast
12:53 AM 48.9 °F - 43.0 °F 80% 30.07 in 10.0 mi NE 6.9 mph - N/A   Overcast
1:53 AM 48.0 °F - 42.1 °F 80% 30.06 in 10.0 mi NNE 6.9 mph - N/A   Overcast
2:31 AM 48.0 °F - 43.0 °F 83% 30.05 in 10.0 mi NE 8.1 mph - N/A   Overcast
2:45 AM 48.0 °F - 43.0 °F 83% 30.05 in 10.0 mi NNE 6.9 mph - N/A   Overcast
2:53 AM 48.0 °F - 42.1 °F 80% 30.05 in 10.0 mi NNE 6.9 mph - N/A   Overcast
3:53 AM 48.9 °F - 43.0 °F 80% 30.04 in 10.0 mi NE 6.9 mph - N/A   Overcast
4:53 AM 48.9 °F - 43.0 °F 80% 30.02 in 10.0 mi NE 6.9 mph - N/A   Overcast
5:41 AM 48.9 °F - 44.1 °F 83% 30.01 in 10.0 mi NE 5.8 mph - N/A   Overcast
5:50 AM 48.2 °F - 44.6 °F 87% 30.01 in 10.0 mi NE 4.6 mph - N/A   Overcast
5:53 AM 48.9 °F - 45.0 °F 86% 30.02 in 10.0 mi NNE 4.6 mph - N/A   Overcast
6:53 AM 50.0 °F - 46.0 °F 86% 30.04 in 10.0 mi NE 3.5 mph - N/A   Overcast
7:53 AM 50.0 °F - 46.0 °F 86% 30.05 in 10.0 mi East 5.8 mph - N/A   Mostly Cloudy
8:53 AM 53.1 °F - 46.9 °F 80% 30.05 in 10.0 mi Calm Calm - N/A   Mostly Cloudy
9:53 AM 55.0 °F - 48.0 °F 77% 30.04 in 10.0 mi Calm Calm - N/A   Mostly Cloudy
10:53 AM 57.9 °F - 50.0 °F 75% 30.02 in 10.0 mi ESE 3.5 mph - N/A   Mostly Cloudy
11:53 AM 60.1 °F - 51.1 °F 72% 29.97 in 10.0 mi SE 3.5 mph - N/A   Scattered Clouds
12:53 PM 63.0 °F - 54.0 °F 72% 29.94 in 10.0 mi SSE 6.9 mph - N/A   Overcast
1:53 PM 64.0 °F - 54.0 °F 70% 29.93 in 10.0 mi SSE 5.8 mph - N/A   Overcast
2:53 PM 61.0 °F - 54.0 °F 78% 29.92 in 10.0 mi South 8.1 mph - N/A   Overcast
3:53 PM 61.0 °F - 54.0 °F 78% 29.92 in 10.0 mi South 6.9 mph - N/A   Mostly Cloudy
4:53 PM 57.9 °F - 54.0 °F 87% 29.91 in 10.0 mi South 9.2 mph - N/A   Scattered Clouds
5:53 PM 57.0 °F - 55.0 °F 93% 29.90 in 10.0 mi South 8.1 mph - N/A   Mostly Cloudy
6:53 PM 57.0 °F - 55.0 °F 93% 29.89 in 10.0 mi South 9.2 mph - N/A   Mostly Cloudy
7:53 PM 60.1 °F - 55.9 °F 86% 29.89 in 10.0 mi South 4.6 mph - N/A   Overcast
8:15 PM 60.1 °F - 57.0 °F 90% 29.90 in 10.0 mi South 4.6 mph - N/A   Overcast
8:53 PM 64.0 °F - 57.9 °F 80% 29.92 in 10.0 mi WNW 15.0 mph 20.7 mph N/A   Overcast
9:12 PM 57.9 °F - 53.1 °F 84% 29.94 in 10.0 mi WNW 16.1 mph 28.8 mph N/A   Overcast
9:28 PM 57.0 °F - 51.1 °F 81% 29.95 in 10.0 mi WNW 16.1 mph 21.9 mph N/A   Overcast
9:40 PM 55.9 °F - 51.1 °F 84% 29.96 in 10.0 mi NW 23.0 mph 27.6 mph N/A   Overcast
9:53 PM 54.0 °F - 48.0 °F 80% 29.97 in 10.0 mi NW 19.6 mph 29.9 mph N/A   Overcast
10:26 PM 51.1 °F - 45.0 °F 80% 29.99 in 10.0 mi NW 17.3 mph 24.2 mph N/A   Overcast
10:35 PM 51.1 °F - 45.0 °F 80% 30.00 in 10.0 mi NW 18.4 mph 26.5 mph N/A   Overcast
10:53 PM 50.0 °F - 43.0 °F 77% 30.01 in 10.0 mi NNW 25.3 mph 35.7 mph N/A   Overcast
11:03 PM 48.9 °F - 42.1 °F 77% 30.02 in 10.0 mi NNW 27.6 mph 32.2 mph N/A   Overcast
11:53 PM 46.0 °F 37.8 °F 39.0 °F 76% 30.05 in 10.0 mi NW 23.0 mph 29.9 mph N/A   Overcast